Погода в Вчерайше

Украина / Житомирская область     49°51′48″N   29°08′56″E
темп.,
°C
ветер,
м/с
пор.,
м/с
влажн.,
%
обл.,
%
осадки,
мм/ч
давл.,
гПа
погр.,
м
20 апреля, вт
вт2000:00+7св3579100 0.2 1014123
03:00+5ссв348671 0.2 101376
06:00+6с3790100 0.1 1012215
09:00+6ссв4785100 0.1 1012408
12:00+10ссв556364 0.5 10101247
15:00+11ссв556089 0.9 10091460
18:00+10с466478 0.1 1009901
21:00+7сз347840 0.2 101067
21 апреля, ср
ср2100:00+7сз358285 0.0 1010133
03:00+5зсз368969 0.0 1011130
06:00+5зсз3787100 0.0 1011219
09:00+7зсз367998 0.0 1012363
12:00+11зсз4653100 0.2 10121679
15:00+12з5652100 0.3 10121534
18:00+11зюз5667100 0.0 1013856
21:00+9ююз3480100 0.4 101483
22 апреля, чт
чт2200:00+7юз4886100 0.1 1014147
03:00+7юз378490 0.1 1015137
06:00+6юз488717 0.0 1015141
09:00+11юз466998 0.0 1016347
12:00+15юз575321 0.1 10151542
15:00+14зюз6962100 0.7 1015930
18:00+14юз376581 0.1 1014580
21:00+10юз51179100 0.3 1015272
23 апреля, пт
пт2300:00+9юз51090100 0.9 1015290
03:00+8зюз379263 1.2 1014178
06:00+7ссз4790100 0.0 1015530
09:00+3ссз5996100 1.0 1017512
12:00+6сз3676100 1.8 1018903
15:00+8зсз4759100 2.1 10181392
18:00+9сз585818 0.2 10171510
21:00+5з366525 0.3 1019109
24 апреля, сб
сб2400:00+3з35750 0.0 101893
03:00+2зюз3776100 0.0 1018131
06:00+2зсз51197100 0.5 1018452
09:00+3зсз7117720 1.3 10191080
12:00+7зсз81052100 0.0 10201927
15:00+8зсз6945100 0.0 10192413
18:00+8з695281 0.1 10191905
21:00+4зюз356414 0.1 102081